COSMOS 2499 DEB, 50802

Orbit data source: Space-Track

COSMOS 2499 DEB, 50802 is space debris in LEO originally from a launch on Fri, 23 May 2014 UTC launched from the Plesetsk Missile And Space Complex (PKMTR). Debris objects in space refer to the collection of defunct objects orbiting the Earth. Examples of debris include non-operational satellites, rocket bodies, and fragments generated from explosions, collisions, or faulty payload assembly.

Loading next visibility...
Identifier
50802, 2014-028AC
Orbit
LEO
Country
Flag of CISCIS
Related business
Manufacturer
TsNIIKhM
Mission
Spacecraft
Bus & Motor
Unknown
Mass
Unknown
Launch date (UTC)
2014-05-23 (12 years ago)
Launch vehicle
Unknown
Launch site
Plesetsk Missile And Space Complex (PKMTR)
Object type
Payload
Rocket body
Debris
Shape & HBR
Unknown shape, 0.1 m
Radar Cross Section
Small (<0.1 m²)

Expand to show TLE details & history
Last TLE update: 2 weeks ago

TLE from 2 weeks ago
0 COSMOS 2499 DEB
1 50802U 14028AC  25337.81733332  .00008439  00000-0  19330-1 0  9991
2 50802  82.5700 358.8518 0261917 298.4716  59.0247 13.13749528193496
Epoch: 2025-12-03T19:36Z
TLE epoch observation values (Epoch: 2025-12-03T19:36:57.598Z)
Latitude
-0.00006°
Longitude
-8.27089°
Altitude
1,113.111 km
Speed
7.343 km/s
True Right ascension
23h 55m 24s
True Declination
0° 00' 00"
Sunlit
Object was in daylight at epoch
Visualization orbit readout
Latitude
Unknown
Longitude
Unknown
Altitude
Unknown
Speed
Unknown
Apparent Right ascension
Unknown
Apparent Declination
Unknown
Sunlit
N/A
Visualization observer readout
Local Sidereal Time
22:15:32
Azimuth
Unknown
Elevation
Unknown
Doppler factor
Unknown
Orbital elements
Apogee altitude
1,404.574 km
Perigee altitude
1,007.295 km
Semi-major axis
7,584.072 km
Eccentricity
0.02619
Inclination
82.57°
RAAN
358.8518°
Arg. of periapsis
298.4716°
True anomaly
61.64118°
Mean anomaly
59.0247°
Eccentric anomaly
60.3286°
Mean motion
3.28617 °/min
Orbital period
109.55 mins
BSTAR
0.01933
Loading maneuver chart data...
Computing Atmospheric mass density...
Loading historical data...
Loading historical data...
Loading historical data...
Loading historical data...
Loading historical data...
Loading historical data...
Loading historical data...

Documentation

Showing up to 5 results
|